Culdrose, United Kingdom

11:55 AM GMT on January 20, 2018 (GMT +0000)
Culdrose Navy

Weather History for EGDR - July, 2014

Change the Weather History Date:

Tuesday, July 1, 2014

  Actual Average Record
Temperature  
Mean Temperature 62 °F -  
Max Temperature 66 °F 63 °F 73 °F (2006)
Min Temperature 57 °F 53 °F 48 °F (2011)
Degree Days  
Heating Degree Days 4    
Growing Degree Days 12 (Base 50)    
Moisture  
Dew Point 57 °F    
Average Humidity 82    
Maximum Humidity 100    
Minimum Humidity 55    
Precipitation  
Precipitation 0.04 in - - ()
Sea Level Pressure  
Sea Level Pressure 30.03 in    
Wind  
Wind Speed 13 mph ()    
Max Wind Speed 22 mph    
Max Gust Speed 33 mph    
Visibility 7.1 miles    
Events Rain    
Averages and records for this station are not official NWS values.
T = Trace of Precipitation, MM = Missing Value Source: Averaged Metar Reports

Daily Weather History Graph

Daily Weather History Graph

Search for Another Location

Airport or City:

Trip Planner

Search our weather history database for the weather conditions in past years. The results will help you decide how hot, cold, wet, or windy it might be!

Date:

Astronomy

Jul. 01, 2014 Rise Set
Actual Time 5:15 AM BST 9:33 PM BST
Civil Twilight 4:31 AM BST 10:18 PM BST
Nautical Twilight 3:26 AM BST 11:22 PM BST
Astronomical Twilight 1:57 AM BST 12:52 AM BST
Moon 9:36 AM BST (7/1) 11:21 PM BST (7/1)
Length of Visible Light 17h 46m
Length of Day
16h 18m
Waxing Crescent, 15% of the Moon is Illuminated
Jul 1
Waxing Crescent
Jul 5
First Quarter
Jul 12
Full
Jul 19
Last Quarter
Jul 26
New

Hourly Weather History & Observations

Time (BST) Temp. Dew Point Humidity Pressure Visibility Wind Dir Wind Speed Gust Speed Precip Events Conditions
12:00 AM 61 °F 56 °F 80% 29.95 in 10 mi East 12.7 mph - -   Haze
12:50 AM 60.8 °F 57.2 °F 88% 29.95 in 6.2 mi East 11.5 mph - N/A Rain Light Rain
1:00 AM 61 °F 57 °F 82% 29.96 in 9 mi East 11.5 mph - - Rain Light Rain
1:50 AM 60.8 °F 57.2 °F 88% 29.95 in 6.2 mi East 11.5 mph - N/A Rain Light Rain
2:00 AM 60 °F 57 °F 88% 29.96 in 9 mi East 11.5 mph - - Rain Light Rain
2:50 AM 60.8 °F 57.2 °F 88% 29.95 in 6.2 mi East 12.7 mph - N/A   Haze
3:00 AM 60 °F 58 °F 90% 29.95 in 7 mi East 12.7 mph - - Rain Light Rain
3:50 AM 60.8 °F 57.2 °F 88% 29.95 in 6.2 mi East 12.7 mph - N/A   Mostly Cloudy
4:00 AM 61 °F 58 °F 86% 29.95 in 7 mi East 12.7 mph - -   Mostly Cloudy
4:50 AM 60.8 °F 59.0 °F 94% 29.95 in 6.2 mi East 13.8 mph - N/A Rain Light Rain
5:00 AM 61 °F 58 °F 87% 29.94 in 7 mi East 13.8 mph - - Rain Light Rain
5:50 AM 60.8 °F 59.0 °F 94% 29.95 in 1.9 mi ESE 12.7 mph - N/A Rain Rain Showers
6:00 AM 60 °F 58 °F 91% 29.96 in 2 mi ESE 12.7 mph - - Rain Heavy Rain Showers
6:50 AM 59.0 °F 59.0 °F 100% 29.98 in 1.6 mi ESE 12.7 mph - N/A Rain Rain Showers
7:00 AM 59 °F 58 °F 96% 29.97 in 2 mi ESE 12.7 mph - - Rain Heavy Rain Showers
7:50 AM 60.8 °F 59.0 °F 94% 29.98 in 3.1 mi East 11.5 mph - N/A Rain Light Rain Showers
8:00 AM 60 °F 59 °F 94% 29.99 in 3 mi East 11.5 mph - - Rain Light Rain Showers
8:50 AM 60.8 °F 59.0 °F 94% 29.98 in 4.3 mi East 16.1 mph - N/A   Mostly Cloudy
9:00 AM 60 °F 59 °F 95% 30.00 in 4 mi East 16.1 mph - - Rain Light Rain Showers
9:50 AM 60.8 °F 59.0 °F 94% 30.01 in 5.0 mi East 16.1 mph - N/A Rain Light Rain Showers
10:00 AM 62 °F 60 °F 89% 30.01 in 5 mi East 16.1 mph - - Rain Light Rain Showers
10:50 AM 62.6 °F 59.0 °F 88% 30.01 in 6.2 mi East 16.1 mph 29.9 mph N/A   Mostly Cloudy
11:00 AM 62 °F 59 °F 86% 30.02 in 7 mi East 16.1 mph - - Rain Light Rain Showers
11:50 AM 62.6 °F 59.0 °F 88% 30.01 in 6.2 mi East 21.9 mph 33.4 mph N/A   Haze
12:00 PM 63 °F 58 °F 79% 30.03 in 9 mi East 21.9 mph - -   Haze
12:50 PM 62.6 °F 57.2 °F 82% 30.04 in 6.2 mi East 19.6 mph 33.4 mph N/A   Haze
1:00 PM 62 °F 57 °F 79% 30.04 in 11 mi East 19.6 mph - -   Haze
1:50 PM 62.6 °F 57.2 °F 82% 30.04 in 6.2 mi East 20.7 mph 32.2 mph N/A   Haze
2:00 PM 63 °F 57 °F 76% 30.05 in 11 mi East 20.7 mph - -   Haze
2:50 PM 66.2 °F 57.2 °F 73% 30.04 in 6.2 mi East 20.7 mph 32.2 mph N/A   Haze
3:00 PM 66 °F 58 °F 67% 30.05 in 11 mi East 20.7 mph - -   Haze
3:50 PM 66.2 °F 55.4 °F 68% 30.06 in 6.2 mi East 21.9 mph - N/A   Scattered Clouds
4:00 PM 66 °F 56 °F 61% 30.06 in 12 mi East 21.9 mph - -   Scattered Clouds
4:50 PM 66.2 °F 53.6 °F 64% 30.06 in 6.2 mi East 19.6 mph 32.2 mph N/A   Partly Cloudy
5:00 PM 65 °F 54 °F 58% 30.07 in 12 mi East 19.6 mph - -   Scattered Clouds
5:50 PM 66.2 °F 53.6 °F 64% 30.06 in 6.2 mi East 20.7 mph 32.2 mph N/A   Partly Cloudy
6:00 PM 66 °F 54 °F 55% 30.07 in 12 mi East 20.7 mph - -   Scattered Clouds
6:50 PM 64.4 °F 53.6 °F 68% 30.06 in 6.2 mi East 16.1 mph - N/A   Partly Cloudy
7:00 PM 65 °F 54 °F 59% 30.09 in 12 mi East 16.1 mph - -   Scattered Clouds
7:50 PM 62.6 °F 55.4 °F 77% 30.09 in 6.2 mi East 16.1 mph - N/A   Partly Cloudy
8:00 PM 63 °F 56 °F 70% 30.10 in 12 mi East 16.1 mph - -   Scattered Clouds
8:50 PM 60.8 °F 55.4 °F 82% 30.12 in 6.2 mi East 13.8 mph - N/A   Haze
9:00 PM 61 °F 56 °F 77% 30.12 in 11 mi East 13.8 mph - -   Haze
9:50 PM 59.0 °F 55.4 °F 88% 30.12 in 6.2 mi East 12.7 mph - N/A   Haze
10:00 PM 59 °F 55 °F 84% 30.14 in 11 mi East 12.7 mph - -   Haze
10:50 PM 57.2 °F 53.6 °F 88% 30.15 in 6.2 mi East 11.5 mph - N/A   Partly Cloudy
11:00 PM 58 °F 53 °F 79% 30.16 in 12 mi East 11.5 mph - -   Scattered Clouds
11:50 PM 57.2 °F 51.8 °F 82% 30.15 in - East 10.4 mph - N/A   Clear